Flag for U.S.A. Weather past 2 weeks in Moreno Valley, California, U.S.A.

Now
55 °F

Sunny.


Feels Like: 53 °F
Forecast: 34 / 57 °F
Wind: 6 mph from East

Location: Riverside / March Air Force Base

Current Time: Dec 27, 2014 at 5:03:04 PM

Latest Report: Dec 27, 2014 at 3:58 PM


Visibility: 10 mi

Pressure: 30.27 "Hg

Humidity: 20%

Dew point: 15 °F

Location of Moreno ValleyLocation

Historic Weather in Moreno Valley — Graph

°F

Moreno Valley temperature yesterday

Maximum temperature yesterday: 56 °F (at 1:58 PM)
Minimum temperature yesterday: 42 °F (at 7:58 PM)
Average temperature yesterday: 48 °F

Past Weeks' High & Low Weather Summary

 TemperatureHumidityPressure
High76 °F (Dec 23, 1:58 PM)100% (Dec 12, 3:58 PM)30.34 "Hg (Dec 12, 3:58 PM)
Low38 °F (Dec 27, 5:58 AM)18% (Dec 25, 2:58 PM)29.77 "Hg (Dec 25, 4:58 AM)
Average51 °F74%30.07 "Hg
* Reported Dec 12 3:58 PM — Dec 27 3:58 PM, Moreno Valley, Weather by CustomWeather, © 2014

Note: Actual official high and low records may vary slightly from our data, if they occured in-between our weather recording intervals... More about our weather records

Advertising

Moreno Valley weather history for previous 24 hours

 ConditionsComfort  
Time TempWeatherWind HumidityBarometerVisibility
3:58 PM
Dec 27
55 °FSunny.6 mph20%30.27 "Hg10 mi
2:58 PM55 °FSunny.7 mph21%30.29 "Hg10 mi
1:58 PM55 °FSunny.6 mph20%30.27 "Hg10 mi
12:58 PM54 °FSunny.5 mph20%30.29 "Hg10 mi
11:58 AM53 °FSunny.2 mph21%30.29 "Hg10 mi
10:58 AM52 °FSunny.5 mph22%30.33 "Hg10 mi
9:58 AM51 °FSunny.7 mph21%30.34 "Hg10 mi
8:58 AM48 °FSunny.14 mph22%30.32 "Hg10 mi
7:58 AM43 °FSunny.6 mph32%30.30 "Hg10 mi
6:58 AM38 °FSunny.No wind41%30.29 "Hg10 mi
5:58 AM38 °FClear.8 mph43%30.27 "Hg10 mi
4:58 AM40 °FClear.9 mph39%30.25 "Hg10 mi
3:58 AM42 °FClear.9 mph33%30.22 "Hg10 mi
2:58 AM41 °FClear.10 mph37%30.22 "Hg10 mi
1:58 AM40 °FClear.7 mph38%30.22 "Hg10 mi
12:58 AM39 °FClear.7 mph45%30.22 "Hg10 mi
11:58 PM
Dec 26
45 °FClear.6 mph30%30.21 "Hg10 mi
10:58 PM44 °FClear.No wind34%30.20 "Hg10 mi
9:58 PM45 °FClear.9 mph30%30.19 "Hg10 mi
8:58 PM46 °FClear.13 mph28%30.18 "Hg10 mi
7:58 PM42 °FClear.5 mph39%30.16 "Hg10 mi
6:58 PM47 °FClear.8 mph28%30.14 "Hg10 mi
5:58 PM47 °FClear.13 mph31%30.11 "Hg10 mi
Weather by CustomWeather, © 2014

See weather overviewHow to use our weather pages